| time (UTC) | temp F | wind direction | speed MPH | gust MPH | rain 1hr in | rain 24hr in | rain mn in | humidity % | barometer mb |
| 20260906233057 | 96 | 192 | 0.0 | 0.0 | 0.00 | 0.00 | 0.00 | 22 | 1005.7 |
| 20260906232509 | 96 | 192 | 0.0 | 0.0 | 0.00 | 0.00 | 0.00 | 22 | 1005.7 |
| 20260906232031 | 96 | 147 | 0.0 | 0.0 | 0.00 | 0.00 | 0.00 | 21 | 1005.7 |
| 20260906231558 | 96 | 147 | 1.0 | 0.0 | 0.00 | 0.00 | 0.00 | 22 | 1005.8 |
| 20260906231018 | 96 | 98 | 2.0 | 0.0 | 0.00 | 0.00 | 0.00 | 22 | 1005.8 |
| 20260906230532 | 96 | 206 | 2.0 | 0.0 | 0.00 | 0.00 | 0.00 | 21 | 1005.8 |
| 20260906230057 | 96 | 222 | 1.0 | 0.0 | 0.00 | 0.00 | 0.00 | 22 | 1005.8 |
| 20260906225600 | 96 | 215 | 2.0 | 0.0 | 0.00 | 0.00 | 0.00 | 21 | 1005.8 |
| 20260906225025 | 96 | 214 | 1.0 | 0.0 | 0.00 | 0.00 | 0.00 | 21 | 1005.8 |
| 20260906224543 | 96 | 147 | 1.0 | 0.0 | 0.00 | 0.00 | 0.00 | 22 | 1005.7 |
| 20260906224056 | 95 | 147 | 2.0 | 0.0 | 0.00 | 0.00 | 0.00 | 21 | 1005.8 |
| 20260906223523 | 96 | 198 | 2.0 | 0.0 | 0.00 | 0.00 | 0.00 | 22 | 1005.9 |
| 20260906223039 | 96 | 233 | 2.0 | 0.0 | 0.00 | 0.00 | 0.00 | 22 | 1005.9 |
| 20260906222551 | 95 | 200 | 2.0 | 0.0 | 0.00 | 0.00 | 0.00 | 22 | 1006.0 |
| 20260906222016 | 95 | 199 | 1.0 | 0.0 | 0.00 | 0.00 | 0.00 | 21 | 1006.0 |
| 20260906221532 | 95 | 203 | 2.0 | 0.0 | 0.00 | 0.00 | 0.00 | 21 | 1006.1 |
| 20260906221044 | 95 | 203 | 3.0 | 0.0 | 0.00 | 0.00 | 0.00 | 21 | 1006.2 |
| 20260906220557 | 95 | 196 | 2.0 | 0.0 | 0.00 | 0.00 | 0.00 | 21 | 1006.4 |
| 20260906220100 | 95 | 199 | 1.0 | 0.0 | 0.00 | 0.00 | 0.00 | 21 | 1006.4 |
| 20260906215516 | 94 | 191 | 2.0 | 0.0 | 0.00 | 0.00 | 0.00 | 21 | 1006.5 |
| 20260906215027 | 94 | 294 | 4.0 | 0.0 | 0.00 | 0.00 | 0.00 | 21 | 1006.6 |
| 20260906214542 | 94 | 261 | 4.0 | 0.0 | 0.00 | 0.00 | 0.00 | 21 | 1006.6 |
| 20260906214056 | 95 | 277 | 2.0 | 0.0 | 0.00 | 0.00 | 0.00 | 21 | 1006.7 |
| 20260906213505 | 95 | 195 | 1.0 | 0.0 | 0.00 | 0.00 | 0.00 | 21 | 1006.9 |
| 20260906213018 | 95 | 101 | 2.0 | 0.0 | 0.00 | 0.00 | 0.00 | 21 | 1007.1 |
| 20260906212531 | 95 | 225 | 3.0 | 0.0 | 0.00 | 0.00 | 0.00 | 20 | 1007.3 |
| 20260906212047 | 95 | 256 | 3.0 | 0.0 | 0.00 | 0.00 | 0.00 | 20 | 1007.3 |
| 20260906211602 | 95 | 256 | 3.0 | 0.0 | 0.00 | 0.00 | 0.00 | 21 | 1007.5 |
| 20260906211017 | 95 | 295 | 3.0 | 0.0 | 0.00 | 0.00 | 0.00 | 20 | 1007.6 |
| 20260906210545 | 95 | 230 | 2.0 | 0.0 | 0.00 | 0.00 | 0.00 | 21 | 1007.6 |
| 20260906210115 | 95 | 259 | 1.0 | 0.0 | 0.00 | 0.00 | 0.00 | 21 | 1007.7 |
| 20260906205508 | 94 | 280 | 2.0 | 0.0 | 0.00 | 0.00 | 0.00 | 20 | 1007.8 |
| 20260906205019 | 94 | 280 | 2.0 | 0.0 | 0.00 | 0.00 | 0.00 | 21 | 1007.9 |
| 20260906204533 | 94 | 252 | 2.0 | 0.0 | 0.00 | 0.00 | 0.00 | 21 | 1008.0 |
| 20260906204048 | 94 | 252 | 2.0 | 0.0 | 0.00 | 0.00 | 0.00 | 21 | 1008.1 |
| 20260906203604 | 94 | 285 | 1.0 | 0.0 | 0.00 | 0.00 | 0.00 | 21 | 1008.2 |
| 20260906203015 | 93 | 285 | 2.0 | 0.0 | 0.00 | 0.00 | 0.00 | 21 | 1008.2 |
| 20260906202543 | 93 | 284 | 3.0 | 0.0 | 0.00 | 0.00 | 0.00 | 21 | 1008.3 |
| 20260906202102 | 93 | 284 | 3.0 | 0.0 | 0.00 | 0.00 | 0.00 | 20 | 1008.3 |
| 20260906201518 | 93 | 251 | 3.0 | 0.0 | 0.00 | 0.00 | 0.00 | 21 | 1008.4 |
| 20260906201034 | 93 | 278 | 3.0 | 0.0 | 0.00 | 0.00 | 0.00 | 20 | 1008.5 |
| 20260906200549 | 94 | 267 | 2.0 | 0.0 | 0.00 | 0.00 | 0.00 | 20 | 1008.5 |
| 20260906200001 | 94 | 294 | 1.0 | 0.0 | 0.00 | 0.00 | 0.00 | 20 | 1008.5 |
| 20260906195523 | 94 | 221 | 1.0 | 0.0 | 0.00 | 0.00 | 0.00 | 20 | 1008.5 |
| 20260906195038 | 94 | 219 | 2.0 | 0.0 | 0.00 | 0.00 | 0.00 | 20 | 1008.6 |
| 20260906194553 | 94 | 219 | 2.0 | 0.0 | 0.00 | 0.00 | 0.00 | 20 | 1008.8 |
| 20260906194014 | 94 | 204 | 2.0 | 0.0 | 0.00 | 0.00 | 0.00 | 21 | 1008.7 |
| 20260906193528 | 93 | 284 | 2.0 | 0.0 | 0.00 | 0.00 | 0.00 | 21 | 1008.7 |
| 20260906193042 | 93 | 284 | 3.0 | 0.0 | 0.00 | 0.00 | 0.00 | 21 | 1008.8 |
| 20260906192553 | 93 | 271 | 1.0 | 0.0 | 0.00 | 0.00 | 0.00 | 22 | 1008.9 |
| 20260906192018 | 92 | 257 | 2.0 | 0.0 | 0.00 | 0.00 | 0.00 | 22 | 1009.0 |
| 20260906191541 | 92 | 257 | 3.0 | 0.0 | 0.00 | 0.00 | 0.00 | 21 | 1009.1 |
| 20260906191101 | 92 | 257 | 3.0 | 0.0 | 0.00 | 0.00 | 0.00 | 22 | 1009.1 |
| 20260906190529 | 91 | 205 | 3.0 | 0.0 | 0.00 | 0.00 | 0.00 | 23 | 1009.2 |
| 20260906190042 | 91 | 253 | 2.0 | 0.0 | 0.00 | 0.00 | 0.00 | 23 | 1009.3 |
| 20260906185554 | 91 | 236 | 2.0 | 0.0 | 0.00 | 0.00 | 0.00 | 23 | 1009.4 |
| 20260906185006 | 91 | 236 | 2.0 | 0.0 | 0.00 | 0.00 | 0.00 | 24 | 1009.7 |
| 20260906184535 | 90 | 240 | 2.0 | 0.0 | 0.00 | 0.00 | 0.00 | 24 | 1009.7 |
| 20260906184045 | 90 | 256 | 2.0 | 0.0 | 0.00 | 0.00 | 0.00 | 25 | 1009.8 |
| 20260906183558 | 89 | 269 | 3.0 | 0.0 | 0.00 | 0.00 | 0.00 | 24 | 1009.8 |
| 20260906183007 | 90 | 256 | 2.0 | 0.0 | 0.00 | 0.00 | 0.00 | 25 | 1010.0 |
| 20260906182522 | 90 | 275 | 1.0 | 0.0 | 0.00 | 0.00 | 0.00 | 27 | 1010.0 |
| 20260906182045 | 89 | 281 | 1.0 | 0.0 | 0.00 | 0.00 | 0.00 | 28 | 1010.1 |
| 20260906181558 | 89 | 273 | 1.0 | 0.0 | 0.00 | 0.00 | 0.00 | 28 | 1010.2 |
| 20260906181017 | 89 | 272 | 1.0 | 0.0 | 0.00 | 0.00 | 0.00 | 27 | 1010.4 |
| 20260906180535 | 89 | 272 | 1.0 | 0.0 | 0.00 | 0.00 | 0.00 | 29 | 1010.5 |
| 20260906180047 | 88 | 272 | 1.0 | 0.0 | 0.00 | 0.00 | 0.00 | 28 | 1010.5 |
| 20260906175559 | 88 | 288 | 1.0 | 0.0 | 0.00 | 0.00 | 0.00 | 29 | 1010.6 |
| 20260906175021 | 88 | 288 | 1.0 | 0.0 | 0.00 | 0.00 | 0.00 | 28 | 1010.7 |
| 20260906174536 | 88 | 288 | 1.0 | 0.0 | 0.00 | 0.00 | 0.00 | 28 | 1010.8 |
| 20260906174053 | 88 | 298 | 0.0 | 0.0 | 0.00 | 0.00 | 0.00 | 29 | 1010.8 |
| 20260906173517 | 88 | 298 | 0.0 | 0.0 | 0.00 | 0.00 | 0.00 | 29 | 1010.9 |
| 20260906173032 | 88 | 298 | 0.0 | 0.0 | 0.00 | 0.00 | 0.00 | 30 | 1011.1 |
| 20260906172552 | 87 | 310 | 0.0 | 0.0 | 0.00 | 0.00 | 0.00 | 30 | 1011.0 |
| 20260906172102 | 86 | 310 | 0.0 | 0.0 | 0.00 | 0.00 | 0.00 | 30 | 1011.1 |
| 20260906171522 | 85 | 310 | 0.0 | 0.0 | 0.00 | 0.00 | 0.00 | 31 | 1011.1 |
| 20260906171040 | 84 | 310 | 0.0 | 0.0 | 0.00 | 0.00 | 0.00 | 32 | 1011.1 |
| 20260906170507 | 84 | 310 | 0.0 | 0.0 | 0.00 | 0.00 | 0.00 | 32 | 1011.2 |
| 20260906170019 | 83 | 313 | 0.0 | 0.0 | 0.00 | 0.00 | 0.00 | 33 | 1011.2 |
| 20260906165532 | 82 | 313 | 0.0 | 0.0 | 0.00 | 0.00 | 0.00 | 33 | 1011.2 |
| 20260906165045 | 81 | 313 | 0.0 | 0.0 | 0.00 | 0.00 | 0.00 | 34 | 1011.2 |
| 20260906164557 | 80 | 313 | 0.0 | 0.0 | 0.00 | 0.00 | 0.00 | 36 | 1011.3 |
| 20260906164013 | 79 | 314 | 0.0 | 0.0 | 0.00 | 0.00 | 0.00 | 37 | 1011.4 |
| 20260906163536 | 78 | 314 | 0.0 | 0.0 | 0.00 | 0.00 | 0.00 | 37 | 1011.4 |
| 20260906163050 | 78 | 298 | 0.0 | 0.0 | 0.00 | 0.00 | 0.00 | 37 | 1011.4 |
| 20260906162610 | 77 | 298 | 0.0 | 0.0 | 0.00 | 0.00 | 0.00 | 38 | 1011.4 |
| 20260906162017 | 77 | 298 | 0.0 | 0.0 | 0.00 | 0.00 | 0.00 | 38 | 1011.4 |
| 20260906161543 | 76 | 298 | 0.0 | 0.0 | 0.00 | 0.00 | 0.00 | 39 | 1011.4 |
| 20260906161055 | 76 | 298 | 0.0 | 0.0 | 0.00 | 0.00 | 0.00 | 40 | 1011.3 |
| 20260906160509 | 76 | 298 | 0.0 | 0.0 | 0.00 | 0.00 | 0.00 | 40 | 1011.4 |
| 20260906160033 | 75 | 298 | 0.0 | 0.0 | 0.00 | 0.00 | 0.00 | 41 | 1011.5 |
| 20260906155547 | 75 | 298 | 0.0 | 0.0 | 0.00 | 0.00 | 0.00 | 40 | 1011.4 |
| 20260906155058 | 75 | 298 | 0.0 | 0.0 | 0.00 | 0.00 | 0.00 | 40 | 1011.3 |
| 20260906154516 | 75 | 298 | 0.0 | 0.0 | 0.00 | 0.00 | 0.00 | 40 | 1011.4 |
| 20260906154032 | 75 | 298 | 0.0 | 0.0 | 0.00 | 0.00 | 0.00 | 40 | 1011.4 |
| 20260906153544 | 75 | 298 | 0.0 | 0.0 | 0.00 | 0.00 | 0.00 | 40 | 1011.4 |
| 20260906153100 | 74 | 298 | 0.0 | 0.0 | 0.00 | 0.00 | 0.00 | 40 | 1011.4 |
| 20260906152525 | 74 | 298 | 0.0 | 0.0 | 0.00 | 0.00 | 0.00 | 40 | 1011.4 |
| 20260906152041 | 74 | 298 | 0.0 | 0.0 | 0.00 | 0.00 | 0.00 | 41 | 1011.4 |
| 20260906151554 | 74 | 298 | 0.0 | 0.0 | 0.00 | 0.00 | 0.00 | 41 | 1011.4 |
| 20260906151018 | 73 | 298 | 0.0 | 0.0 | 0.00 | 0.00 | 0.00 | 41 | 1011.4 |
| 20260906150530 | 73 | 298 | 0.0 | 0.0 | 0.00 | 0.00 | 0.00 | 41 | 1011.4 |
| 20260906150043 | 73 | 298 | 0.0 | 0.0 | 0.00 | 0.00 | 0.00 | 41 | 1011.4 |
| 20260906145558 | 73 | 298 | 0.0 | 0.0 | 0.00 | 0.00 | 0.00 | 41 | 1011.4 |
| 20260906145024 | 73 | 298 | 1.0 | 0.0 | 0.00 | 0.00 | 0.00 | 42 | 1011.4 |
| 20260906144541 | 73 | 296 | 0.0 | 0.0 | 0.00 | 0.00 | 0.00 | 42 | 1011.3 |
| 20260906144053 | 73 | 300 | 0.0 | 0.0 | 0.00 | 0.00 | 0.00 | 42 | 1011.3 |
| 20260906143503 | 72 | 301 | 0.0 | 0.0 | 0.00 | 0.00 | 0.00 | 42 | 1011.3 |
| 20260906143025 | 72 | 312 | 0.0 | 0.0 | 0.00 | 0.00 | 0.00 | 43 | 1011.2 |
| 20260906142547 | 71 | 313 | 0.0 | 0.0 | 0.00 | 0.00 | 0.00 | 44 | 1011.2 |
| 20260906142101 | 70 | 313 | 0.0 | 0.0 | 0.00 | 0.00 | 0.00 | 45 | 1011.2 |
| 20260906141523 | 70 | 313 | 0.0 | 0.0 | 0.00 | 0.00 | 0.00 | 46 | 1011.1 |
| 20260906141037 | 69 | 313 | 0.0 | 0.0 | 0.00 | 0.00 | 0.00 | 46 | 1011.2 |
| 20260906140550 | 69 | 313 | 0.0 | 0.0 | 0.00 | 0.00 | 0.00 | 47 | 1011.1 |
| 20260906140011 | 69 | 313 | 0.0 | 0.0 | 0.00 | 0.00 | 0.00 | 46 | 1011.1 |
| 20260906135525 | 68 | 313 | 0.0 | 0.0 | 0.00 | 0.00 | 0.00 | 46 | 1011.1 |
| 20260906135041 | 68 | 313 | 0.0 | 0.0 | 0.00 | 0.00 | 0.00 | 46 | 1011.1 |
| 20260906134607 | 68 | 313 | 0.0 | 0.0 | 0.00 | 0.00 | 0.00 | 46 | 1011.0 |
| 20260906134018 | 68 | 313 | 0.0 | 0.0 | 0.00 | 0.00 | 0.00 | 46 | 1011.0 |
| 20260906133535 | 68 | 313 | 0.0 | 0.0 | 0.00 | 0.00 | 0.00 | 46 | 1011.0 |
| 20260906133053 | 68 | 313 | 0.0 | 0.0 | 0.00 | 0.00 | 0.00 | 45 | 1010.9 |
| 20260906132600 | 68 | 313 | 0.0 | 0.0 | 0.00 | 0.00 | 0.00 | 45 | 1011.0 |
| 20260906132021 | 67 | 313 | 0.0 | 0.0 | 0.00 | 0.00 | 0.00 | 45 | 1010.9 |
| 20260906131538 | 67 | 313 | 0.0 | 0.0 | 0.00 | 0.00 | 0.00 | 45 | 1011.0 |
| 20260906131050 | 67 | 313 | 0.0 | 0.0 | 0.00 | 0.00 | 0.00 | 45 | 1011.0 |
| 20260906130603 | 67 | 280 | 0.0 | 0.0 | 0.00 | 0.00 | 0.00 | 45 | 1010.9 |
| 20260906130025 | 67 | 280 | 0.0 | 0.0 | 0.00 | 0.00 | 0.00 | 45 | 1010.8 |
| 20260906125541 | 67 | 277 | 0.0 | 0.0 | 0.00 | 0.00 | 0.00 | 45 | 1010.8 |
| 20260906125054 | 67 | 273 | 0.0 | 0.0 | 0.00 | 0.00 | 0.00 | 45 | 1010.7 |
| 20260906124517 | 67 | 272 | 0.0 | 0.0 | 0.00 | 0.00 | 0.00 | 45 | 1010.7 |
| 20260906124036 | 67 | 272 | 0.0 | 0.0 | 0.00 | 0.00 | 0.00 | 46 | 1010.7 |
| 20260906123549 | 67 | 272 | 0.0 | 0.0 | 0.00 | 0.00 | 0.00 | 46 | 1010.7 |
| 20260906123104 | 68 | 272 | 0.0 | 0.0 | 0.00 | 0.00 | 0.00 | 46 | 1010.7 |
| 20260906122519 | 68 | 273 | 0.0 | 0.0 | 0.00 | 0.00 | 0.00 | 46 | 1010.7 |
| 20260906122040 | 68 | 272 | 0.0 | 0.0 | 0.00 | 0.00 | 0.00 | 47 | 1010.5 |
| 20260906121605 | 68 | 272 | 0.0 | 0.0 | 0.00 | 0.00 | 0.00 | 48 | 1010.5 |
| 20260906121012 | 68 | 273 | 0.0 | 0.0 | 0.00 | 0.00 | 0.00 | 48 | 1010.5 |
| 20260906120529 | 68 | 273 | 0.0 | 0.0 | 0.00 | 0.00 | 0.00 | 48 | 1010.5 |
| 20260906120042 | 68 | 273 | 0.0 | 0.0 | 0.00 | 0.00 | 0.00 | 48 | 1010.5 |
| 20260906115555 | 68 | 273 | 0.0 | 0.0 | 0.00 | 0.00 | 0.00 | 47 | 1010.4 |
| 20260906115013 | 69 | 272 | 0.0 | 0.0 | 0.00 | 0.00 | 0.00 | 47 | 1010.5 |
| 20260906114535 | 69 | 272 | 0.0 | 0.0 | 0.00 | 0.00 | 0.00 | 47 | 1010.5 |
| 20260906114051 | 69 | 273 | 0.0 | 0.0 | 0.00 | 0.00 | 0.00 | 46 | 1010.5 |
| 20260906113605 | 69 | 272 | 0.0 | 0.0 | 0.00 | 0.00 | 0.00 | 46 | 1010.4 |
| 20260906113015 | 69 | 272 | 0.0 | 0.0 | 0.00 | 0.00 | 0.00 | 46 | 1010.5 |
| 20260906112535 | 69 | 272 | 0.0 | 0.0 | 0.00 | 0.00 | 0.00 | 46 | 1010.6 |
| 20260906112049 | 70 | 272 | 0.0 | 0.0 | 0.00 | 0.00 | 0.00 | 46 | 1010.6 |
| 20260906111602 | 70 | 273 | 0.0 | 0.0 | 0.00 | 0.00 | 0.00 | 45 | 1010.6 |
| 20260906111013 | 70 | 272 | 0.0 | 0.0 | 0.00 | 0.00 | 0.00 | 44 | 1010.5 |
| 20260906110540 | 70 | 272 | 0.0 | 0.0 | 0.00 | 0.00 | 0.00 | 44 | 1010.4 |
| 20260906110051 | 70 | 272 | 0.0 | 0.0 | 0.00 | 0.00 | 0.00 | 44 | 1010.5 |
| 20260906105503 | 70 | 272 | 0.0 | 0.0 | 0.00 | 0.00 | 0.00 | 45 | 1010.7 |
| 20260906105018 | 70 | 272 | 0.0 | 0.0 | 0.00 | 0.00 | 0.00 | 45 | 1010.7 |
| 20260906104529 | 70 | 272 | 0.0 | 0.0 | 0.00 | 0.00 | 0.00 | 44 | 1010.7 |
| 20260906104042 | 70 | 273 | 0.0 | 0.0 | 0.00 | 0.00 | 0.00 | 45 | 1010.7 |
| 20260906103504 | 70 | 273 | 0.0 | 0.0 | 0.00 | 0.00 | 0.00 | 45 | 1010.6 |
| 20260906103042 | 70 | 272 | 0.0 | 0.0 | 0.00 | 0.00 | 0.00 | 45 | 1010.6 |
| 20260906102548 | 70 | 273 | 0.0 | 0.0 | 0.00 | 0.00 | 0.00 | 46 | 1010.6 |
| 20260906102056 | 70 | 273 | 0.0 | 0.0 | 0.00 | 0.00 | 0.00 | 45 | 1010.7 |
| 20260906101506 | 70 | 272 | 0.0 | 0.0 | 0.00 | 0.00 | 0.00 | 44 | 1010.7 |
| 20260906101036 | 70 | 273 | 0.0 | 0.0 | 0.00 | 0.00 | 0.00 | 45 | 1010.7 |
| 20260906100547 | 70 | 272 | 0.0 | 0.0 | 0.00 | 0.00 | 0.00 | 46 | 1010.7 |
| 20260906100057 | 70 | 272 | 0.0 | 0.0 | 0.00 | 0.00 | 0.00 | 46 | 1010.7 |
| 20260906095509 | 70 | 273 | 0.0 | 0.0 | 0.00 | 0.00 | 0.00 | 47 | 1010.6 |
| 20260906095032 | 70 | 272 | 0.0 | 0.0 | 0.00 | 0.00 | 0.00 | 45 | 1010.6 |
| 20260906094544 | 70 | 272 | 0.0 | 0.0 | 0.00 | 0.00 | 0.00 | 44 | 1010.5 |
| 20260906094003 | 70 | 272 | 0.0 | 0.0 | 0.00 | 0.00 | 0.00 | 43 | 1010.5 |
| 20260906093525 | 70 | 272 | 0.0 | 0.0 | 0.00 | 0.00 | 0.00 | 43 | 1010.4 |
| 20260906093049 | 70 | 272 | 0.0 | 0.0 | 0.00 | 0.00 | 0.00 | 42 | 1010.4 |
| 20260906092551 | 70 | 272 | 0.0 | 0.0 | 0.00 | 0.00 | 0.00 | 42 | 1010.2 |
| 20260906092104 | 70 | 272 | 0.0 | 0.0 | 0.00 | 0.00 | 0.00 | 43 | 1010.2 |
| 20260906091515 | 70 | 272 | 0.0 | 0.0 | 0.00 | 0.00 | 0.00 | 42 | 1010.2 |
| 20260906091038 | 70 | 272 | 0.0 | 0.0 | 0.00 | 0.00 | 0.00 | 44 | 1010.2 |
| 20260906090551 | 70 | 273 | 0.0 | 0.0 | 0.00 | 0.00 | 0.00 | 43 | 1010.1 |
| 20260906090104 | 70 | 273 | 0.0 | 0.0 | 0.00 | 0.00 | 0.00 | 43 | 1010.0 |
| 20260906085515 | 70 | 272 | 0.0 | 0.0 | 0.00 | 0.00 | 0.00 | 42 | 1010.0 |
| 20260906085036 | 70 | 272 | 0.0 | 0.0 | 0.00 | 0.00 | 0.00 | 43 | 1010.0 |
| 20260906084549 | 70 | 272 | 0.0 | 0.0 | 0.00 | 0.00 | 0.00 | 43 | 1010.1 |
| 20260906084014 | 70 | 273 | 0.0 | 0.0 | 0.00 | 0.00 | 0.00 | 43 | 1010.0 |
| 20260906083524 | 70 | 272 | 0.0 | 0.0 | 0.00 | 0.00 | 0.00 | 42 | 1010.2 |
| 20260906083040 | 70 | 273 | 0.0 | 0.0 | 0.00 | 0.00 | 0.00 | 42 | 1010.2 |
| 20260906082502 | 70 | 272 | 0.0 | 0.0 | 0.00 | 0.00 | 0.00 | 42 | 1010.3 |
| 20260906082025 | 70 | 272 | 0.0 | 0.0 | 0.00 | 0.00 | 0.00 | 42 | 1010.3 |
| 20260906081539 | 70 | 273 | 0.0 | 0.0 | 0.00 | 0.00 | 0.00 | 42 | 1010.3 |
| 20260906081055 | 70 | 272 | 0.0 | 0.0 | 0.00 | 0.00 | 0.00 | 42 | 1010.3 |
| 20260906080604 | 70 | 273 | 0.0 | 0.0 | 0.00 | 0.00 | 0.00 | 42 | 1010.3 |
| 20260906080012 | 70 | 273 | 0.0 | 0.0 | 0.00 | 0.00 | 0.00 | 42 | 1010.5 |
| 20260906075531 | 70 | 272 | 0.0 | 0.0 | 0.00 | 0.00 | 0.00 | 42 | 1010.5 |
| 20260906075052 | 71 | 272 | 0.0 | 0.0 | 0.00 | 0.00 | 0.00 | 42 | 1010.6 |
| 20260906074516 | 71 | 272 | 0.0 | 0.0 | 0.00 | 0.00 | 0.00 | 42 | 1010.6 |
| 20260906074031 | 71 | 273 | 0.0 | 0.0 | 0.00 | 0.00 | 0.00 | 42 | 1010.6 |
| 20260906073544 | 71 | 273 | 0.0 | 0.0 | 0.00 | 0.00 | 0.00 | 43 | 1010.6 |
| 20260906073059 | 71 | 273 | 0.0 | 0.0 | 0.00 | 0.00 | 0.00 | 43 | 1010.6 |
| 20260906072511 | 71 | 272 | 0.0 | 0.0 | 0.00 | 0.00 | 0.00 | 44 | 1010.7 |
| 20260906072028 | 72 | 273 | 0.0 | 0.0 | 0.00 | 0.00 | 0.00 | 44 | 1010.6 |
| 20260906071537 | 72 | 272 | 0.0 | 0.0 | 0.00 | 0.00 | 0.00 | 44 | 1010.7 |
| 20260906071053 | 72 | 273 | 0.0 | 0.0 | 0.00 | 0.00 | 0.00 | 45 | 1010.7 |
| 20260906070602 | 72 | 273 | 0.0 | 0.0 | 0.00 | 0.00 | 0.00 | 45 | 1010.5 |
| 20260906070025 | 72 | 273 | 0.0 | 0.0 | 0.00 | 0.00 | 0.00 | 45 | 1010.5 |
| 20260906065538 | 72 | 272 | 0.0 | 0.0 | 0.00 | 0.00 | 0.00 | 44 | 1010.6 |
| 20260906065051 | 72 | 273 | 0.0 | 0.0 | 0.00 | 0.00 | 0.00 | 44 | 1010.7 |
| 20260906064604 | 73 | 272 | 0.0 | 0.0 | 0.00 | 0.00 | 0.00 | 43 | 1010.7 |
| 20260906064013 | 73 | 273 | 0.0 | 0.0 | 0.00 | 0.00 | 0.00 | 42 | 1010.6 |
| 20260906063535 | 73 | 273 | 0.0 | 0.0 | 0.00 | 0.00 | 0.00 | 42 | 1010.6 |
| 20260906063049 | 73 | 272 | 0.0 | 0.0 | 0.00 | 0.00 | 0.00 | 41 | 1010.7 |
| 20260906062602 | 73 | 272 | 0.0 | 0.0 | 0.00 | 0.00 | 0.00 | 41 | 1010.7 |
| 20260906062019 | 73 | 272 | 0.0 | 0.0 | 0.00 | 0.00 | 0.00 | 41 | 1010.6 |
| 20260906061535 | 73 | 272 | 0.0 | 0.0 | 0.00 | 0.00 | 0.00 | 41 | 1010.7 |
| 20260906061049 | 74 | 273 | 0.0 | 0.0 | 0.00 | 0.00 | 0.00 | 40 | 1010.6 |
| 20260906060507 | 74 | 273 | 0.0 | 0.0 | 0.00 | 0.00 | 0.00 | 39 | 1010.5 |
| 20260906060033 | 74 | 272 | 0.0 | 0.0 | 0.00 | 0.00 | 0.00 | 39 | 1010.4 |
| 20260906055545 | 74 | 272 | 0.0 | 0.0 | 0.00 | 0.00 | 0.00 | 39 | 1010.4 |
| 20260906055059 | 74 | 272 | 0.0 | 0.0 | 0.00 | 0.00 | 0.00 | 39 | 1010.3 |
| 20260906054522 | 75 | 272 | 0.0 | 0.0 | 0.00 | 0.00 | 0.00 | 39 | 1010.2 |
| 20260906054023 | 75 | 272 | 0.0 | 0.0 | 0.00 | 0.00 | 0.00 | 39 | 1010.2 |
| 20260906053539 | 75 | 273 | 0.0 | 0.0 | 0.00 | 0.00 | 0.00 | 38 | 1010.2 |
| 20260906053055 | 75 | 272 | 0.0 | 0.0 | 0.00 | 0.00 | 0.00 | 38 | 1010.2 |
| 20260906052518 | 76 | 272 | 0.0 | 0.0 | 0.00 | 0.00 | 0.00 | 37 | 1010.1 |
| 20260906052035 | 76 | 272 | 0.0 | 0.0 | 0.00 | 0.00 | 0.00 | 37 | 1010.2 |
| 20260906051551 | 76 | 273 | 0.0 | 0.0 | 0.00 | 0.00 | 0.00 | 36 | 1010.1 |
| 20260906051104 | 76 | 272 | 0.0 | 0.0 | 0.00 | 0.00 | 0.00 | 36 | 1010.1 |
| 20260906050521 | 77 | 273 | 0.0 | 0.0 | 0.00 | 0.00 | 0.00 | 36 | 1010.0 |
| 20260906050040 | 77 | 273 | 0.0 | 0.0 | 0.00 | 0.00 | 0.00 | 36 | 1010.1 |
| 20260906045552 | 77 | 273 | 0.0 | 0.0 | 0.00 | 0.00 | 0.00 | 35 | 1010.0 |
| 20260906045105 | 77 | 273 | 0.0 | 0.0 | 0.00 | 0.00 | 0.00 | 36 | 1010.0 |
| 20260906044513 | 77 | 272 | 0.0 | 0.0 | 0.00 | 0.00 | 0.00 | 36 | 1010.0 |
| 20260906044039 | 77 | 273 | 0.0 | 0.0 | 0.00 | 0.00 | 0.00 | 36 | 1010.0 |
| 20260906043555 | 77 | 272 | 0.0 | 0.0 | 0.00 | 0.00 | 0.00 | 36 | 1010.1 |
| 20260906043021 | 78 | 272 | 0.0 | 0.0 | 0.00 | 0.00 | 0.00 | 36 | 1010.0 |
| 20260906042532 | 78 | 272 | 0.0 | 0.0 | 0.00 | 0.00 | 0.00 | 36 | 1010.1 |
| 20260906042046 | 78 | 272 | 0.0 | 0.0 | 0.00 | 0.00 | 0.00 | 35 | 1010.0 |
| 20260906041504 | 78 | 272 | 0.0 | 0.0 | 0.00 | 0.00 | 0.00 | 35 | 1010.0 |
| 20260906041027 | 78 | 273 | 0.0 | 0.0 | 0.00 | 0.00 | 0.00 | 35 | 1010.1 |
| 20260906040542 | 78 | 272 | 0.0 | 0.0 | 0.00 | 0.00 | 0.00 | 35 | 1010.1 |
| 20260906040056 | 78 | 272 | 0.0 | 0.0 | 0.00 | 0.00 | 0.00 | 35 | 1010.1 |
| 20260906035519 | 78 | 272 | 0.0 | 0.0 | 0.00 | 0.00 | 0.00 | 35 | 1010.1 |
| 20260906035042 | 78 | 272 | 0.0 | 0.0 | 0.00 | 0.00 | 0.00 | 35 | 1010.2 |
| 20260906034603 | 79 | 272 | 0.0 | 0.0 | 0.00 | 0.00 | 0.00 | 34 | 1010.1 |
| 20260906034014 | 79 | 272 | 0.0 | 0.0 | 0.00 | 0.00 | 0.00 | 34 | 1010.1 |
| 20260906033531 | 79 | 272 | 0.0 | 0.0 | 0.00 | 0.00 | 0.00 | 35 | 1010.1 |
| 20260906033049 | 79 | 272 | 0.0 | 0.0 | 0.00 | 0.00 | 0.00 | 35 | 1010.0 |
| 20260906032505 | 80 | 272 | 0.0 | 0.0 | 0.00 | 0.00 | 0.00 | 35 | 1009.9 |
| 20260906032028 | 80 | 272 | 0.0 | 0.0 | 0.00 | 0.00 | 0.00 | 35 | 1009.9 |
| 20260906031545 | 80 | 272 | 0.0 | 0.0 | 0.00 | 0.00 | 0.00 | 35 | 1009.8 |
| 20260906031059 | 80 | 272 | 0.0 | 0.0 | 0.00 | 0.00 | 0.00 | 34 | 1009.7 |
| 20260906030507 | 80 | 272 | 0.0 | 0.0 | 0.00 | 0.00 | 0.00 | 34 | 1009.7 |
| 20260906030027 | 80 | 272 | 0.0 | 0.0 | 0.00 | 0.00 | 0.00 | 35 | 1009.7 |
| 20260906025542 | 80 | 271 | 0.0 | 0.0 | 0.00 | 0.00 | 0.00 | 35 | 1009.5 |
| 20260906025106 | 80 | 271 | 0.0 | 0.0 | 0.00 | 0.00 | 0.00 | 36 | 1009.4 |
| 20260906024516 | 81 | 271 | 0.0 | 0.0 | 0.00 | 0.00 | 0.00 | 35 | 1009.3 |
| 20260906024041 | 81 | 271 | 0.0 | 0.0 | 0.00 | 0.00 | 0.00 | 35 | 1009.2 |
| 20260906023553 | 81 | 271 | 0.0 | 0.0 | 0.00 | 0.00 | 0.00 | 35 | 1009.2 |
| 20260906023010 | 82 | 271 | 0.0 | 0.0 | 0.00 | 0.00 | 0.00 | 34 | 1009.2 |
| 20260906022524 | 82 | 271 | 0.0 | 0.0 | 0.00 | 0.00 | 0.00 | 34 | 1009.2 |
| 20260906022039 | 82 | 271 | 0.0 | 0.0 | 0.00 | 0.00 | 0.00 | 33 | 1009.1 |
| 20260906021549 | 83 | 271 | 0.0 | 0.0 | 0.00 | 0.00 | 0.00 | 33 | 1009.0 |
| 20260906021103 | 83 | 271 | 0.0 | 0.0 | 0.00 | 0.00 | 0.00 | 33 | 1009.0 |
| 20260906020524 | 84 | 271 | 0.0 | 0.0 | 0.00 | 0.00 | 0.00 | 32 | 1009.0 |
| 20260906020037 | 84 | 271 | 0.0 | 0.0 | 0.00 | 0.00 | 0.00 | 32 | 1009.0 |
| 20260906015549 | 84 | 271 | 0.0 | 0.0 | 0.00 | 0.00 | 0.00 | 32 | 1008.9 |
| 20260906015102 | 84 | 271 | 0.0 | 0.0 | 0.00 | 0.00 | 0.00 | 31 | 1008.9 |
| 20260906014516 | 85 | 271 | 1.0 | 0.0 | 0.00 | 0.00 | 0.00 | 31 | 1008.8 |
| 20260906014034 | 85 | 271 | 1.0 | 0.0 | 0.00 | 0.00 | 0.00 | 31 | 1008.8 |
| 20260906013546 | 86 | 271 | 0.0 | 0.0 | 0.00 | 0.00 | 0.00 | 31 | 1008.7 |
| 20260906013100 | 86 | 271 | 0.0 | 0.0 | 0.00 | 0.00 | 0.00 | 31 | 1008.7 |
| 20260906012521 | 86 | 271 | 0.0 | 0.0 | 0.00 | 0.00 | 0.00 | 30 | 1008.8 |
| 20260906012031 | 87 | 271 | 0.0 | 0.0 | 0.00 | 0.00 | 0.00 | 30 | 1008.8 |
| 20260906011544 | 87 | 271 | 0.0 | 0.0 | 0.00 | 0.00 | 0.00 | 30 | 1008.7 |
| 20260906011010 | 87 | 271 | 2.0 | 0.0 | 0.00 | 0.00 | 0.00 | 30 | 1008.8 |
| 20260906010526 | 88 | 271 | 2.0 | 0.0 | 0.00 | 0.00 | 0.00 | 29 | 1008.9 |
| 20260906010039 | 88 | 271 | 1.0 | 0.0 | 0.00 | 0.00 | 0.00 | 29 | 1008.9 |
| 20260906005552 | 88 | 225 | 1.0 | 0.0 | 0.00 | 0.00 | 0.00 | 29 | 1008.8 |
| 20260906005002 | 88 | 225 | 2.0 | 0.0 | 0.00 | 0.00 | 0.00 | 29 | 1008.7 |
| 20260906004522 | 89 | 232 | 2.0 | 0.0 | 0.00 | 0.00 | 0.00 | 29 | 1008.8 |
| 20260906004037 | 89 | 231 | 3.0 | 0.0 | 0.00 | 0.00 | 0.00 | 28 | 1008.9 |
| 20260906003550 | 89 | 228 | 3.0 | 0.0 | 0.00 | 0.00 | 0.00 | 28 | 1008.8 |
| 20260906003023 | 90 | 252 | 2.0 | 0.0 | 0.00 | 0.00 | 0.00 | 28 | 1008.8 |
| 20260906002538 | 90 | 243 | 1.0 | 0.0 | 0.00 | 0.00 | 0.00 | 28 | 1008.8 |
| 20260906002052 | 90 | 243 | 2.0 | 0.0 | 0.00 | 0.00 | 0.00 | 29 | 1008.8 |
| 20260906001603 | 90 | 243 | 2.0 | 0.0 | 0.00 | 0.00 | 0.00 | 28 | 1008.8 |
| 20260906001025 | 90 | 242 | 3.0 | 0.0 | 0.00 | 0.00 | 0.00 | 28 | 1008.8 |
| 20260906000542 | 90 | 239 | 2.0 | 0.0 | 0.00 | 0.00 | 0.00 | 28 | 1008.8 |
| 20260906000058 | 90 | 233 | 1.0 | 0.0 | 0.00 | 0.00 | 0.00 | 28 | 1008.8 |
| 20260905235506 | 90 | 239 | 2.0 | 0.0 | 0.00 | 0.00 | 0.00 | 28 | 1008.7 |
| 20260905235032 | 90 | 239 | 3.0 | 0.0 | 0.00 | 0.00 | 0.00 | 28 | 1008.7 |
| 20260905234548 | 90 | 240 | 4.0 | 0.0 | 0.00 | 0.00 | 0.00 | 28 | 1008.7 |
| 20260905234100 | 90 | 255 | 3.0 | 0.0 | 0.00 | 0.00 | 0.00 | 28 | 1008.7 |
| 20260905233515 | 91 | 266 | 2.0 | 0.0 | 0.00 | 0.00 | 0.00 | 27 | 1008.6 |